Lake Tahoe Weather Center

Moon Phase Calendar



Lake Tahoe Water Level
Online Cameras

 


      

Current Conditions in Tahoma
5/17/2024 7:58:44 PM

65°F
Feels Like 64
Clear
Humidity
62%
Pressure
30.06"
Wind
5.7 mph (W)
Dew Point
52°F
UV Index
0/10 (Low)
Visibility
6 mi

Hourly Forecast

Date & Time Fri, May 17
7:00 PM
Fri, May 17
8:00 PM
Fri, May 17
9:00 PM
Fri, May 17
10:00 PM
Fri, May 17
11:00 PM
Sat, May 18
12:00 AM
Sat, May 18
1:00 AM
Sat, May 18
2:00 AM
Sat, May 18
3:00 AM
Sat, May 18
4:00 AM
Sat, May 18
5:00 AM
Sat, May 18
6:00 AM
Sat, May 18
7:00 AM
Sat, May 18
8:00 AM
Sat, May 18
9:00 AM
Sat, May 18
10:00 AM
Sat, May 18
11:00 AM
Sat, May 18
12:00 PM
Sat, May 18
1:00 PM
Sat, May 18
2:00 PM
Sat, May 18
3:00 PM
Sat, May 18
4:00 PM
Sat, May 18
5:00 PM
Sat, May 18
6:00 PM
Sat, May 18
7:00 PM
Sat, May 18
8:00 PM
Sat, May 18
9:00 PM
Sat, May 18
10:00 PM
Sat, May 18
11:00 PM
Sun, May 19
12:00 AM
Sun, May 19
1:00 AM
Sun, May 19
2:00 AM
Sun, May 19
3:00 AM
Sun, May 19
4:00 AM
Sun, May 19
5:00 AM
Sun, May 19
6:00 AM
Sun, May 19
7:00 AM
Sun, May 19
8:00 AM
Sun, May 19
9:00 AM
Sun, May 19
10:00 AM
Sun, May 19
11:00 AM
Sun, May 19
12:00 PM
Sun, May 19
1:00 PM
Sun, May 19
2:00 PM
Sun, May 19
3:00 PM
Sun, May 19
4:00 PM
Sun, May 19
5:00 PM
Sun, May 19
6:00 PM
Condition
Clear

Clear

Clear

Clear

Clear

Clear

Clear

Clear

Clear

Clear

Clear

Clear

Clear

Clear

Clear

Clear

Clear

Clear

Clear

Clear

Clear

Clear

Clear

Clear

Clear

Clear

Clear

Clear

Clouds

Clouds

Clouds

Clouds

Clouds

Clouds

Clouds

Clear

Clear

Clear

Clear

Clear

Clouds

Clouds

Clouds

Clouds

Clouds

Clear

Clear

Clear
Temperature 64°F65°F62°F59°F56°F52°F49°F49°F49°F48°F48°F47°F50°F53°F55°F57°F60°F62°F63°F63°F62°F61°F60°F58°F55°F51°F48°F47°F46°F46°F46°F45°F44°F44°F43°F43°F46°F50°F53°F55°F56°F56°F57°F57°F56°F55°F54°F52°F
Feels Like 63°F64°F61°F58°F54°F50°F49°F49°F49°F48°F48°F47°F48°F50°F53°F55°F57°F59°F60°F61°F60°F59°F58°F56°F53°F49°F45°F44°F43°F43°F42°F41°F41°F40°F40°F39°F43°F47°F50°F52°F53°F54°F54°F54°F53°F52°F51°F49°F
Cloudiness 2%2%2%2%1%0%0%0%0%1%3%2%2%2%1%1%1%0%0%0%0%0%0%0%1%0%0%0%17%100%100%67%50%40%34%0%0%0%1%2%12%45%23%15%12%9%8%0%
Visibility 6 mi6 mi6 mi6 mi6 mi6 mi6 mi6 mi6 mi6 mi6 mi6 mi6 mi6 mi6 mi6 mi6 mi6 mi6 mi6 mi6 mi6 mi6 mi6 mi6 mi6 mi6 mi6 mi6 mi6 mi6 mi6 mi6 mi6 mi6 mi6 mi6 mi6 mi6 mi6 mi6 mi6 mi6 mi6 mi6 mi6 mi6 mi6 mi
Precipitation 0%0%0%0%0%0%0%0%0%0%0%0%0%0%0%0%0%0%0%0%0%0%0%0%0%0%0%0%0%0%0%0%0%0%0%0%0%0%0%0%0%0%0%0%0%0%0%0%
Humidity 59%62%63%65%67%66%63%59%58%59%60%63%60%55%50%43%34%30%31%35%39%42%45%49%58%72%82%87%87%85%85%88%88%87%87%87%80%61%52%48%47%44%40%38%39%41%42%48%
Dew Point 49°F52°F50°F48°F45°F41°F35°F34°F33°F33°F33°F34°F35°F35°F35°F33°F30°F29°F31°F34°F36°F36°F37°F37°F39°F41°F42°F42°F41°F40°F40°F40°F39°F39°F38°F38°F38°F35°F34°F34°F34°F34°F31°F30°F30°F30°F30°F32°F
Pressure 30.03"30.06"30.03"30.03"30"29.97"29.94"29.94"29.94"29.94"29.94"29.94"29.94"29.94"29.91"29.91"29.88"29.85"29.85"29.85"29.83"29.83"29.85"29.85"29.88"29.91"29.94"29.97"30"30"29.97"29.97"29.97"29.97"29.97"30"29.97"29.94"29.91"29.91"29.91"29.88"29.88"29.88"29.88"29.88"29.88"29.88"
Wind Speed 6.6 mph5.7 mph5.4 mph4.3 mph3 mph2.1 mph2 mph1.6 mph1.7 mph1.6 mph1.5 mph1.2 mph1.3 mph1.8 mph1.7 mph2.1 mph5.8 mph12.7 mph15.4 mph17.8 mph18.9 mph19.7 mph19.4 mph16 mph12.8 mph7.2 mph6.9 mph6.6 mph6.2 mph6 mph6.2 mph6.2 mph6.1 mph6 mph6.2 mph5.9 mph5.4 mph7.4 mph10.5 mph16.9 mph18 mph19.4 mph19.6 mph19.8 mph20 mph19.3 mph18.4 mph16 mph
Wind
Direction
262°
W
264°
W
250°
WSW
242°
WSW
251°
WSW
236°
SW
223°
SW
199°
SSW
169°
S
173°
S
195°
SSW
229°
SW
206°
SSW
162°
SSE
179°
S
260°
W
261°
W
254°
WSW
251°
WSW
255°
WSW
258°
WSW
263°
W
262°
W
256°
WSW
254°
WSW
242°
WSW
229°
SW
227°
SW
228°
SW
228°
SW
227°
SW
228°
SW
235°
SW
234°
SW
233°
SW
240°
WSW
241°
WSW
240°
WSW
238°
WSW
238°
WSW
245°
WSW
245°
WSW
247°
WSW
250°
WSW
254°
WSW
252°
WSW
252°
WSW
253°
WSW

Daily Forecast

Date High Low Precip. Humidity
Today
May 17

Clear
65 °F
47 °F
0%
34%
Saturday
May 18

Clear
63 °F
46 °F
0%
30%
Sunday
May 19

Clouds
57 °F
42 °F
0%
44%
Monday
May 20

Clouds
53 °F
38 °F
0%
40%
Tuesday
May 21

Clear
56 °F
39 °F
0%
33%
Wednesday
May 22

Clear
58 °F
41 °F
0%
32%
Thursday
May 23

Clouds
52 °F
40 °F
0%
52%
Friday
May 24

Clear
56 °F
38 °F
0%
43%
Saturday
May 25

Clouds
53 °F
39 °F
0%
43%
Sunday
May 26

Clear
57 °F
38 °F
0%
42%
Monday
May 27

Clouds
58 °F
40 °F
0%
35%
Tuesday
May 28

Clouds
53 °F
40 °F
0%
40%
Wednesday
May 29

Clouds
55 °F
38 °F
0%
42%
Thursday
May 30

Clouds
60 °F
43 °F
0%
44%
Friday
May 31

Clear
64 °F
46 °F
0%
30%
Saturday
Jun 1

Clouds
61 °F
47 °F
0%
37%

Temperature 8-14 Day Outlook



Precipitation 8-14 Day Outlook






About Us
Contact Us
Site Map
Search Site
Advertise With Us
   
Tahoe.USLakes.info
THE LAKE TAHOE WEBSITE

Copyright 2024, Lakes Online
Privacy    |    Legal